Weather Roundup
Issued by NWS Chicago, IL

Home | Current Version | Previous Version | Graphics & Text | Print | Product List | Glossary On
Versions: 1 2 3 4 5 6 7 8 9 10 11 12 13 14 15 16 17 18 19 20 21 22 23 24 25 26 27 28 29 30 31 32 33 34 35 36 37 38 39 40 41 42 43 44 45 46 47 48 49 50
078
NZUS59 KLOT 140608
HRRLOT

CHICAGO AREA WEATHER ROUNDUP
NATIONAL WEATHER SERVICE CHICAGO/ROMEOVILLE IL
1200 AM CST SUN FEB 14 2016

NOTE: "FAIR" INDICATES FEW OR NO CLOUDS BELOW 12,000 FEET WITH NO
SIGNIFICANT WEATHER AND/OR OBSTRUCTIONS TO VISIBILITY.

* THESE STATIONS ARE NOT UNDER NWS QUALITY CONTROL. THEY ALSO MAY NOT
  REPORT WEATHER SUCH AS PRECIPITATION OR FOG.

ILZ005-006-012>014-019>023-140700-
NORTHEAST ILLINOIS

CITY           SKY/WX    TMP DP  RH WIND       PRES   REMARKS
OHARE          MOCLDY    11  -3  53 NE6       30.45F WCI   1
6HR MIN TEMP:  10; 6HR MAX TEMP:  13;

MIDWAY         CLOUDY    14  -1  51 SE6       30.46F WCI   5
6HR MIN TEMP:  13; 6HR MAX TEMP:  16;

AURORA         CLOUDY    12   2  64 NE5       30.45F WCI   4
6HR MIN TEMP:  10; 6HR MAX TEMP:  14;

LANSING*       PTCLDY    11   2  66 SE6       30.47F WCI   2
WAUKEGAN       PTCLDY     2  -2  83 CALM      30.45F
6HR MIN TEMP:   2; 6HR MAX TEMP:  10;

DUPAGE AIRPORT CLOUDY    10  -2  58 E7        30.43F WCI  -1
6HR MIN TEMP:   6; 6HR MAX TEMP:  12;

WHEELING       CLOUDY     9  -3  58 NE3       30.47F
6HR MIN TEMP:   9; 6HR MAX TEMP:  12;

MORRIS*        MOCLDY    13   3  63 E3        30.43F
$$

WIZ051-052-058>065-066-070>072-140700-
SOUTHEAST WISCONSIN

CITY           SKY/WX    TMP DP  RH WIND       PRES   REMARKS
MILWAUKEE      CLOUDY     7  -5  57 W3        30.46F
6HR MIN TEMP:   7; 6HR MAX TEMP:  10;

KENOSHA*       PTCLDY     4  -4  69 CALM      30.45F
RACINE*        CLOUDY     6  -6  57 W5        30.48F WCI  -3
BURLINGTON     CLOUDY     0  -4  84 CALM      30.44F
$$

INZ001>003-010>013-019-020-140700-
NORTHWEST INDIANA

CITY           SKY/WX    TMP DP  RH WIND       PRES   REMARKS
GARY*          CLOUDY    13   0  55 SE5       30.48F WCI   5
6HR MIN TEMP:  13; 6HR MAX TEMP:  15;

MICHIGAN CITY* NOT AVBL
RENSSELAER*    NOT AVBL
VALPARAISO     CLOUDY     8   1  73 CALM      30.47F
$$

LMZ740>746-140700-
SOUTHERN LAKE MICHIGAN

STATION/POSITION TIME  SKY/WX   TEMP WIND        PRES    VSBY
                                AIR  DIR/SP/G
                 (UTC)          (F)  (DEG/KT/KT) (MB)    (MI)
HARRISON CRIB    0520            17  200/  8/  9   N/A
BURNHAM HARBOR   0600            13  170/  1/  5   N/A
CALUMET HARBOR   0500            13  170/  6/ 10 1031.4F
BURNS HARBOR     0500            11  180/  6/  8 1032.5F
MICHIGAN CITY    0500            10  140/  7/  9   N/A
$$

ABBREVIATIONS USED IN REMARKS
   TC - TEMPERATURE IN CELSIUS
  WCI - WIND CHILL INDEX
   HX - HEAT INDEX
  VSB - VISIBILITY
$$




USA.gov is the U.S. government's official web portal to all federal, state and local government web resources and services.